Miscellaneous Local Product
Issued by NWS North Platte, NE

Home | Current Version | Previous Version | Text Only | Print | Product List | Glossary On
Versions: 1 2 3 4 5 6 7 8 9 10 11 12 13 14 15 16 17 18 19 20 21 22 23 24 25 26 27 28 29 30 31 32 33 34 35 36 37 38 39 40 41 42 43 44 45 46 47 48 49 50
000
AXUS43 KLBF 030110
MISLBF


WESTERN AND NORTH CENTRAL NEBRASKA HOURLY WEATHER ROUNDUP
NATIONAL WEATHER SERVICE NORTH PLATTE NE
800 PM CDT TUE JUN 02 2015

***STATIONS NOT REPORTING VARIABLES SUCH AS SKY/WEATHER OR
PRESSURE ARE PROVIDED BY THE NEBRASKA DEPARTMENT OF
ROADS...RAWS...AND APRS NETWORKS...AND ARE NOT UNDER
NATIONAL WEATHER SERVICE QUALITY CONTROL***

...OBSERVATIONS IN AND NEAR THE EASTERN PANHANDLE OF NEBRASKA...

CITY           SKY/WX    TMP DP  RH WIND       PRES   REMARKS
PINE RIDGE     LGT RAIN  63  55  75 SE13      29.86F
CHADRON        CLOUDY    64  54  69 SE7       29.78F
ALLIANCE       CLOUDY    65  51  60 N13       29.84S
SIDNEY         SUNNY     79  65  62 SE10      29.82F
WHITECLAY        N/A     60  54  81 E8          N/A
CRESCENT LAKE    N/A     77  63  62 E6          N/A
BIG SPRINGS      N/A     83  67  57 SE9         N/A
$$

...OBSERVATIONS IN NORTH CENTRAL NEBRASKA...

CITY           SKY/WX    TMP DP  RH WIND       PRES   REMARKS
VALENTINE      PTSUNNY   81  63  54 S14       29.77S
THEDFORD       MOSUNNY   79  67  66 SE9G17    29.83R
AINSWORTH      MOSUNNY   77  66  68 SE15G21   29.80S
O`NEILL        SUNNY     75  64  69 S8G16     29.83R
ORD            MOCLDY    81  63  54 S12       29.80R
BROKEN BOW     MOSUNNY   80  66  62 S12       29.82R
BROWNLEE         N/A     83  67  58 SE15        N/A
VALENTINE NWR    N/A     81  63  53 S10         N/A
SPRINGVIEW       N/A     77  66  69 MISG        N/A
HALSEY           N/A     79  66  63 SE9G16      N/A
NEWPORT          N/A     75  66  73 S8          N/A
SARGENT          N/A     77  67  70 CALM        N/A
CHAMBERS         N/A     78  63  60 S3          N/A
EWING            N/A     78  67  68 S5G13       N/A
$$

...OBSERVATIONS IN SOUTHWEST NEBRASKA AND FAR NORTHEAST COLORADO...

CITY           SKY/WX    TMP DP  RH WIND       PRES   REMARKS
WRAY           FAIR      85  55  36 E10       29.80R
IMPERIAL       SUNNY     81  65  58 SE7       29.78R
OGALLALA       MOSUNNY   82  66  57 SE8       29.78S
NORTH PLATTE   MOSUNNY   80  66  62 SE10      29.78S
MCCOOK         SUNNY     84  65  52 SE13      29.77R
LEXINGTON      SUNNY     81  66  61 SE12      29.80S
PAXTON           N/A     82  69  63 E7          N/A
GOTHENBURG       N/A     80  63  55 SE5         N/A
CALLAWAY         N/A     78  68  70 SE12        N/A
$$

...NORTH PLATTE AREA...

CITY           SKY/WX    TMP DP  RH WIND       PRES   REMARKS
AIRPORT        MOSUNNY   80  66  62 SE10      29.78S
$$

...SOME WEATHER OBSERVATIONS FROM AROUND THE REGION...

CITY           SKY/WX    TMP DP  RH WIND       PRES   REMARKS
DENVER         MOSUNNY   79  48  33 E10       29.88S
LARAMIE        SUNNY     71  27  19 W16       30.03S
CHEYENNE       MOSUNNY   74  50  42 NE7       29.94S
SCOTTSBLUFF    MOSUNNY   73  49  42 NE21G35   29.82R
RAPID CITY     TSTM      64  56  75 E7        29.85F
PIERRE         PTSUNNY   78  63  59 NW8       29.70S
WINNER         FAIR      84  62  47 S16       29.74R
SIOUX FALLS    PTCLDY    76  61  59 S16G26    29.81F
OMAHA          MOCLDY    71  60  68 SE21G28   29.91S
GRAND ISLAND   MOCLDY    81  64  56 S17G24    29.82S
KANSAS CITY    MOCLDY    71  60  68 SE9       29.97R
WICHITA        PTCLDY    84  65  52 S16G23    29.85R
HAYS           PTCLDY    84  64  51 SE16      29.80S
LIBERAL        PTCLDY    86  61  42 S16       29.82S
GOODLAND       SUNNY     83  61  47 SE9       29.80F
$$



USA.gov is the U.S. government's official web portal to all federal, state and local government web resources and services.